Goldsboro, NC

4:08 AM EDT on July 21, 2017 (GMT -0400)
Seymour Johnson Air Force Base

Weather History for KGSB - December, 2012

Change the Weather History Date:

Tuesday, December 25, 2012

  Actual Average Record
Temperature  
Mean Temperature 53 °F -  
Max Temperature 62 °F 50 °F 80 °F (2015)
Min Temperature 44 °F 32 °F 21 °F (1999)
Degree Days  
Heating Degree Days 12    
Growing Degree Days 3 (Base 50)    
Moisture  
Dew Point 44 °F    
Average Humidity 78    
Maximum Humidity 95    
Minimum Humidity 51    
Precipitation  
Precipitation 0.00 in - - ()
Sea Level Pressure  
Sea Level Pressure 30.02 in    
Wind  
Wind Speed 5 mph (North)    
Max Wind Speed 14 mph    
Max Gust Speed -    
Visibility 10 miles    
Events      
Averages and records for this station are not official NWS values.
T = Trace of Precipitation, MM = Missing Value Source: NWS Daily Summary

Daily Weather History Graph

Daily Weather History Graph

Search for Another Location

Airport or City:

Trip Planner

Search our weather history database for the weather conditions in past years. The results will help you decide how hot, cold, wet, or windy it might be!

Date:

Astronomy

Dec. 25, 2012 Rise Set
Actual Time 7:18 AM EST 5:05 PM EST
Civil Twilight 6:50 AM EST 5:33 PM EST
Nautical Twilight 6:18 AM EST 6:05 PM EST
Astronomical Twilight 5:47 AM EST 6:36 PM EST
Moon 3:11 PM EST (12/25) 4:51 AM EST (12/25)
Length of Visible Light 10h 43m
Length of Day
9h 46m
Waxing Gibbous, 93% of the Moon is Illuminated
Dec 25
Waxing Gibbous
Dec 28
Full
Jan 4
Last Quarter
Jan 11
New
Jan 18
First Quarter

Hourly Weather History & Observations

Time (EST) Temp. Windchill Dew Point Humidity Pressure Visibility Wind Dir Wind Speed Gust Speed Precip Events Conditions
12:10 AM 46.4 °F 44.3 °F 42.8 °F 87% 29.94 in 10.0 mi WSW 4.6 mph - N/A   Mostly Cloudy
12:16 AM 48.2 °F - 42.8 °F 82% 29.94 in 10.0 mi WSW 4.6 mph - N/A   Overcast
12:38 AM 48.2 °F - 42.8 °F 82% 29.94 in 10.0 mi WSW 5.8 mph - N/A   Overcast
12:55 AM 49.1 °F - 43.2 °F 80% 29.93 in 10.0 mi WSW 4.6 mph - N/A   Overcast
1:16 AM 50.0 °F - 44.6 °F 82% 29.93 in 10.0 mi WSW 5.8 mph - N/A   Overcast
1:55 AM 49.6 °F - 45.1 °F 84% 29.94 in 10.0 mi West 3.5 mph - N/A   Overcast
2:00 AM 50.0 °F - 44.6 °F 82% 29.94 in 10.0 mi WSW 3.5 mph - N/A   Overcast
2:55 AM 49.1 °F - 45.5 °F 87% 29.95 in 10.0 mi West 3.5 mph - N/A   Overcast
3:26 AM 48.2 °F - 44.6 °F 87% 29.96 in 10.0 mi WSW 4.6 mph - N/A   Overcast
3:55 AM 47.7 °F - 44.6 °F 89% 29.96 in 10.0 mi WNW 3.5 mph - N/A   Scattered Clouds
4:05 AM 48.2 °F - 44.6 °F 87% 29.96 in 10.0 mi NW 3.5 mph - N/A   Mostly Cloudy
4:55 AM 49.8 °F - 46.4 °F 88% 29.98 in 10.0 mi WNW 4.6 mph - N/A   Overcast
5:47 AM 50.0 °F - 46.4 °F 87% 30.01 in 10.0 mi West 3.5 mph - N/A   Overcast
5:55 AM 49.6 °F - 46.4 °F 89% 30.01 in 10.0 mi WNW 3.5 mph - N/A   Overcast
6:18 AM 50.0 °F - 46.4 °F 87% 30.01 in 10.0 mi WNW 3.5 mph - N/A   Scattered Clouds
6:55 AM 47.7 °F - 45.3 °F 92% 30.02 in 10.0 mi Calm Calm - N/A   Clear
7:32 AM 44.6 °F - 42.8 °F 93% 30.04 in 1.0 mi Calm Calm - N/A   Clear
7:42 AM 44.6 °F - 42.8 °F 93% 30.04 in 5.0 mi Calm Calm - N/A   Clear
7:55 AM 44.2 °F 41.8 °F 43.0 °F 95% 30.03 in 10.0 mi NNE 4.6 mph - N/A   Clear
8:55 AM 50.4 °F - 46.8 °F 87% 30.06 in 10.0 mi NNE 3.5 mph - N/A   Clear
9:55 AM 53.4 °F - 46.2 °F 77% 30.07 in 10.0 mi Calm Calm - N/A   Clear
10:55 AM 56.8 °F - 45.3 °F 65% 30.07 in 10.0 mi NE 4.6 mph - N/A   Clear
11:55 AM 60.3 °F - 44.1 °F 55% 30.06 in 10.0 mi East 5.8 mph - N/A   Clear
12:55 PM 61.0 °F - 43.7 °F 53% 30.02 in 10.0 mi ENE 8.1 mph - N/A   Clear
1:55 PM 62.2 °F - 43.7 °F 51% 30.03 in 10.0 mi East 6.9 mph - N/A   Scattered Clouds
2:55 PM 60.8 °F - 43.5 °F 53% 30.03 in 10.0 mi ENE 5.8 mph - N/A   Overcast
3:55 PM 60.1 °F - 44.1 °F 55% 30.06 in 10.0 mi NE 5.8 mph - N/A   Overcast
4:55 PM 57.0 °F - 45.0 °F 64% 30.04 in 10.0 mi NE 5.8 mph - N/A   Clear
5:55 PM 55.8 °F - 44.8 °F 67% 30.06 in 10.0 mi ENE 5.8 mph - N/A   Overcast
6:55 PM 53.4 °F - 45.3 °F 74% 30.05 in 10.0 mi East 13.8 mph - N/A   Partly Cloudy
7:55 PM 51.1 °F - 41.7 °F 70% 30.09 in 10.0 mi East 11.5 mph - N/A   Partly Cloudy
8:55 PM 49.8 °F - 40.8 °F 71% 30.10 in 10.0 mi ENE 9.2 mph - N/A   Mostly Cloudy
9:55 PM 48.6 °F - 38.7 °F 69% 30.13 in 10.0 mi ENE 6.9 mph - N/A   Clear
10:55 PM 47.7 °F - 39.0 °F 72% 30.09 in 10.0 mi ENE 10.4 mph - N/A   Scattered Clouds
11:43 PM 46.4 °F 41.5 °F 41.0 °F 81% 30.09 in 10.0 mi ENE 10.4 mph - N/A   Mostly Cloudy
11:55 PM 47.1 °F - 40.5 °F 78% 30.09 in 10.0 mi ENE 8.1 mph - N/A   Overcast